Weather in Podolsk

Russia / Orenburg Oblast     52°49′57″N   53°35′30″E
temp.,
°C
wind,
m/s
gust,
m/s
humid.,
%
clouds,
%
prec.,
mm/h
press.,
hPa
HPBL,
m
1 march, mon
mon123:00−15nnw349492 0.4 101064
02:00−16nw239482 0.0 101264
05:00−17nw239590 0.1 101449
08:00−17nw349597 0.0 101697
11:00−17nw249378 0.0 1018165
14:00−15nw349237 0.0 1019313
17:00−15nw369357 0.0 1020318
20:00−19wnw339815 0.0 102122
2 march, tue
tue223:00−21w239936 0.0 102220
02:00−22w239853 0.0 102220
05:00−23sw339953 0.0 102122
08:00−19ssw489891 0.0 1018196
11:00−15ssw7129596 0.1 1016344
14:00−11sw81494100 0.6 1012535
17:00−7sw81493100 1.4 1009707
20:00−5sw81493100 0.3 1006659
3 march, wed
wed323:00−3sw81595100 1.0 1004669
02:00−3sw61396100 0.9 1002589
05:00−3sw51096100 1.8 1002337
08:00−2wsw3598100 0.3 1002198
11:00−4wnw3596100 0.3 1003206
14:00−3wnw249356 0.0 1003257
17:00−4wnw239643 0.0 100398
20:00−4nw369598 0.1 1004263
4 march, thu
thu423:00−8wnw339696 0.2 100659
02:00−8wnw489490 0.1 1006224
05:00−13wnw469787 0.1 1008101
08:00−14w469891 0.0 1009104
11:00−11wsw489490 0.1 1010265
14:00−7sw6109396 0.1 1010446
17:00−6sw7129397 0.1 1010563
20:00−6sw71493100 0.2 1009782
5 march, fri
fri523:00−4sw91692100 0.4 1007887
02:00−2sw101795100 1.1 1005927
05:00−1sw111789100 1.4 1003951
08:00−2sw101894100 0.2 1003901
11:00−1wsw111693100 0.9 10051035
14:000wsw81396100 0.4 1008950
17:00−2nw3884100 1.4 1011507
20:00−5nnw2287100 0.0 101325